| time (UTC) | temp C | wind direction | speed KPH | gust KPH | rain 1hr cm | rain 24hr cm | rain mn cm | humidity % | barometer mb |
| 20260505063408 | 9 | 66 | 1.6 | 3.2 | 0.00 | 0.00 | 0.00 | 80 | 1031.7 |
| 20260505062858 | 10 | 53 | 0.0 | 3.2 | 0.00 | 0.00 | 0.00 | 79 | 1031.7 |
| 20260505062401 | 10 | 107 | 1.6 | 3.2 | 0.00 | 0.00 | 0.00 | 78 | 1031.7 |
| 20260505061906 | 10 | 79 | 1.6 | 3.2 | 0.00 | 0.00 | 0.00 | 78 | 1031.7 |
| 20260505061356 | 10 | 66 | 0.0 | 4.8 | 0.00 | 0.00 | 0.00 | 77 | 1031.7 |
| 20260505060850 | 10 | 129 | 0.0 | 4.8 | 0.00 | 0.00 | 0.00 | 76 | 1031.7 |
| 20260505060333 | 11 | 217 | 1.6 | 4.8 | 0.00 | 0.00 | 0.00 | 74 | 1031.7 |
| 20260505055819 | 11 | 104 | 1.6 | 4.8 | 0.00 | 0.00 | 0.00 | 74 | 1031.7 |
| 20260505055309 | 11 | 103 | 0.0 | 3.2 | 0.00 | 0.00 | 0.00 | 73 | 1031.6 |
| 20260505054158 | 12 | 77 | 3.2 | 8.0 | 0.00 | 0.00 | 0.00 | 72 | 1031.6 |
| 20260505053646 | 12 | 66 | 4.8 | 8.0 | 0.00 | 0.00 | 0.00 | 72 | 1031.6 |
| 20260505053141 | 12 | 54 | 4.8 | 8.0 | 0.00 | 0.00 | 0.00 | 72 | 1031.6 |
| 20260505052650 | 12 | 56 | 4.8 | 8.0 | 0.00 | 0.00 | 0.00 | 71 | 1031.6 |
| 20260505052153 | 12 | 66 | 3.2 | 8.0 | 0.00 | 0.00 | 0.00 | 71 | 1031.6 |
| 20260505051701 | 12 | 47 | 1.6 | 8.0 | 0.00 | 0.00 | 0.00 | 70 | 1031.7 |
| 20260505051147 | 13 | 44 | 1.6 | 8.0 | 0.00 | 0.00 | 0.00 | 70 | 1031.7 |
| 20260505050646 | 13 | 319 | 3.2 | 8.0 | 0.00 | 0.00 | 0.00 | 69 | 1031.7 |
| 20260505050152 | 13 | 66 | 3.2 | 8.0 | 0.00 | 0.00 | 0.00 | 68 | 1031.7 |
| 20260505041508 | 16 | 291 | 1.6 | 9.7 | 0.00 | 0.00 | 0.00 | 62 | 1031.9 |
| 20260505040957 | 16 | 0 | 3.2 | 9.7 | 0.00 | 0.00 | 0.00 | 62 | 1031.9 |
| 20260505040443 | 16 | 256 | 3.2 | 6.4 | 0.00 | 0.00 | 0.00 | 61 | 1031.8 |
| 20260505035946 | 16 | 277 | 3.2 | 8.0 | 0.00 | 0.00 | 0.00 | 60 | 1031.8 |
| 20260505034819 | 16 | 280 | 3.2 | 8.0 | 0.00 | 0.00 | 0.00 | 60 | 1031.8 |
| 20260505034320 | 16 | 327 | 3.2 | 8.0 | 0.00 | 0.00 | 0.00 | 59 | 1031.8 |
| 20260505033819 | 16 | 274 | 3.2 | 8.0 | 0.00 | 0.00 | 0.00 | 60 | 1031.8 |
| 20260505032659 | 16 | 274 | 3.2 | 8.0 | 0.00 | 0.00 | 0.00 | 59 | 1031.8 |
| 20260505031521 | 16 | 317 | 3.2 | 9.7 | 0.00 | 0.00 | 0.00 | 58 | 1031.9 |
| 20260505031027 | 16 | 40 | 3.2 | 9.7 | 0.00 | 0.00 | 0.00 | 58 | 1031.8 |
| 20260505030518 | 16 | 277 | 3.2 | 9.7 | 0.00 | 0.00 | 0.00 | 58 | 1031.8 |
| 20260505030007 | 16 | 308 | 4.8 | 11.3 | 0.00 | 0.00 | 0.00 | 61 | 1031.9 |
| 20260505024826 | 16 | 357 | 3.2 | 12.9 | 0.00 | 0.00 | 0.00 | 59 | 1031.9 |
| 20260505023647 | 16 | 296 | 4.8 | 12.9 | 0.00 | 0.00 | 0.00 | 59 | 1031.9 |
| 20260505022518 | 16 | 333 | 4.8 | 12.9 | 0.00 | 0.00 | 0.00 | 59 | 1032.0 |
| 20260505022024 | 16 | 292 | 4.8 | 12.9 | 0.00 | 0.00 | 0.00 | 61 | 1032.0 |
| 20260505021523 | 16 | 291 | 4.8 | 12.9 | 0.00 | 0.00 | 0.00 | 61 | 1032.0 |
| 20260505021007 | 16 | 305 | 4.8 | 12.9 | 0.00 | 0.00 | 0.00 | 60 | 1032.1 |
| 20260505020515 | 16 | 357 | 4.8 | 12.9 | 0.00 | 0.00 | 0.00 | 60 | 1032.3 |
| 20260505020014 | 16 | 246 | 4.8 | 12.9 | 0.00 | 0.00 | 0.00 | 60 | 1032.2 |
| 20260505015512 | 16 | 301 | 6.4 | 12.9 | 0.00 | 0.00 | 0.00 | 60 | 1032.3 |
| 20260505013737 | 16 | 345 | 4.8 | 11.3 | 0.00 | 0.00 | 0.00 | 60 | 1032.4 |
| 20260505013243 | 16 | 283 | 4.8 | 11.3 | 0.00 | 0.00 | 0.00 | 60 | 1032.4 |
| 20260505012738 | 16 | 351 | 4.8 | 11.3 | 0.00 | 0.00 | 0.00 | 60 | 1032.5 |
| 20260505012220 | 16 | 323 | 3.2 | 12.9 | 0.00 | 0.00 | 0.00 | 62 | 1032.6 |
| 20260505011711 | 16 | 291 | 3.2 | 12.9 | 0.00 | 0.00 | 0.00 | 60 | 1032.6 |
| 20260505011207 | 16 | 323 | 4.8 | 12.9 | 0.00 | 0.00 | 0.00 | 62 | 1032.7 |
| 20260505005355 | 15 | 33 | 4.8 | 12.9 | 0.00 | 0.00 | 0.00 | 63 | 1032.9 |
| 20260505004855 | 15 | 346 | 3.2 | 12.9 | 0.00 | 0.00 | 0.00 | 64 | 1033.0 |
| 20260505004340 | 15 | 14 | 4.8 | 12.9 | 0.00 | 0.00 | 0.00 | 65 | 1033.0 |
| 20260505003828 | 15 | 353 | 4.8 | 12.9 | 0.00 | 0.00 | 0.00 | 65 | 1033.1 |
| 20260505003324 | 15 | 0 | 3.2 | 12.9 | 0.00 | 0.00 | 0.00 | 65 | 1033.2 |
| 20260505002832 | 15 | 345 | 1.6 | 11.3 | 0.00 | 0.00 | 0.00 | 65 | 1033.4 |
| 20260505001046 | 14 | 16 | 4.8 | 11.3 | 0.00 | 0.00 | 0.00 | 66 | 1033.7 |
| 20260505000526 | 14 | 0 | 4.8 | 11.3 | 0.00 | 0.00 | 0.00 | 68 | 1033.8 |
| 20260505000036 | 14 | 5 | 3.2 | 9.7 | 0.00 | 0.00 | 0.00 | 67 | 1033.9 |
| 20260504235540 | 14 | 10 | 3.2 | 9.7 | 0.00 | 0.00 | 0.00 | 67 | 1034.0 |
| 20260504235043 | 14 | 0 | 4.8 | 9.7 | 0.00 | 0.00 | 0.00 | 67 | 1034.1 |
| 20260504234544 | 14 | 23 | 3.2 | 11.3 | 0.00 | 0.00 | 0.00 | 68 | 1034.1 |
| 20260504234047 | 14 | 5 | 4.8 | 11.3 | 0.00 | 0.00 | 0.00 | 68 | 1034.2 |
| 20260504233534 | 13 | 338 | 4.8 | 11.3 | 0.00 | 0.00 | 0.00 | 68 | 1034.3 |
| 20260504232412 | 14 | 36 | 4.8 | 9.7 | 0.00 | 0.00 | 0.00 | 68 | 1034.4 |
| 20260504231911 | 14 | 355 | 3.2 | 8.0 | 0.00 | 0.00 | 0.00 | 67 | 1034.4 |
| 20260504231406 | 14 | 23 | 1.6 | 9.7 | 0.00 | 0.00 | 0.00 | 68 | 1034.5 |
| 20260504230902 | 14 | 358 | 1.6 | 9.7 | 0.00 | 0.00 | 0.00 | 67 | 1034.5 |
| 20260504230402 | 14 | 0 | 3.2 | 9.7 | 0.00 | 0.00 | 0.00 | 67 | 1034.4 |
| 20260504225842 | 14 | 351 | 3.2 | 9.7 | 0.00 | 0.00 | 0.00 | 67 | 1034.4 |
| 20260504225341 | 14 | 323 | 3.2 | 6.4 | 0.00 | 0.00 | 0.00 | 68 | 1034.4 |
| 20260504224207 | 14 | 330 | 1.6 | 6.4 | 0.00 | 0.00 | 0.00 | 69 | 1034.4 |
| 20260504223046 | 13 | 353 | 3.2 | 9.7 | 0.00 | 0.00 | 0.00 | 68 | 1034.4 |
| 20260504222548 | 13 | 33 | 4.8 | 9.7 | 0.00 | 0.00 | 0.00 | 68 | 1034.4 |
| 20260504222055 | 13 | 12 | 4.8 | 9.7 | 0.00 | 0.00 | 0.00 | 67 | 1034.4 |
| 20260504221555 | 13 | 47 | 6.4 | 9.7 | 0.00 | 0.00 | 0.00 | 67 | 1034.4 |
| 20260504221055 | 13 | 14 | 4.8 | 9.7 | 0.00 | 0.00 | 0.00 | 67 | 1034.4 |
| 20260504220534 | 13 | 14 | 4.8 | 9.7 | 0.00 | 0.00 | 0.00 | 69 | 1034.4 |
| 20260504215409 | 13 | 9 | 1.6 | 6.4 | 0.00 | 0.00 | 0.00 | 71 | 1034.4 |
| 20260504214903 | 13 | 9 | 3.2 | 6.4 | 0.00 | 0.00 | 0.00 | 71 | 1034.4 |
| 20260504214346 | 13 | 42 | 3.2 | 8.0 | 0.00 | 0.00 | 0.00 | 71 | 1034.4 |
| 20260504213233 | 13 | 23 | 3.2 | 9.7 | 0.00 | 0.00 | 0.00 | 72 | 1034.5 |
| 20260504212715 | 13 | 51 | 3.2 | 9.7 | 0.00 | 0.00 | 0.00 | 73 | 1034.5 |
| 20260504212213 | 12 | 79 | 4.8 | 9.7 | 0.00 | 0.00 | 0.00 | 73 | 1034.5 |
| 20260504211112 | 12 | 52 | 3.2 | 11.3 | 0.00 | 0.00 | 0.00 | 74 | 1034.5 |
| 20260504210607 | 12 | 85 | 3.2 | 11.3 | 0.00 | 0.00 | 0.00 | 74 | 1034.5 |
| 20260504210108 | 12 | 47 | 4.8 | 11.3 | 0.00 | 0.00 | 0.00 | 74 | 1034.5 |
| 20260504205616 | 12 | 36 | 4.8 | 11.3 | 0.00 | 0.00 | 0.00 | 74 | 1034.6 |
| 20260504205059 | 12 | 37 | 4.8 | 9.7 | 0.00 | 0.00 | 0.00 | 74 | 1034.6 |
| 20260504204544 | 12 | 357 | 4.8 | 9.7 | 0.00 | 0.00 | 0.00 | 74 | 1034.6 |
| 20260504204041 | 12 | 58 | 4.8 | 8.0 | 0.00 | 0.00 | 0.00 | 74 | 1034.6 |
| 20260504203521 | 12 | 52 | 4.8 | 8.0 | 0.00 | 0.00 | 0.00 | 75 | 1034.6 |
| 20260504203007 | 12 | 56 | 4.8 | 8.0 | 0.00 | 0.00 | 0.00 | 75 | 1034.6 |
| 20260504202509 | 12 | 53 | 4.8 | 8.0 | 0.00 | 0.00 | 0.00 | 75 | 1034.7 |
| 20260504202015 | 12 | 52 | 3.2 | 8.0 | 0.00 | 0.00 | 0.00 | 76 | 1034.7 |
| 20260504201501 | 12 | 40 | 1.6 | 6.4 | 0.00 | 0.00 | 0.00 | 76 | 1034.7 |
| 20260504200942 | 12 | 9 | 1.6 | 6.4 | 0.00 | 0.00 | 0.00 | 76 | 1034.7 |
| 20260504200424 | 12 | 18 | 3.2 | 6.4 | 0.00 | 0.00 | 0.00 | 76 | 1034.6 |
| 20260504195913 | 12 | 23 | 3.2 | 6.4 | 0.00 | 0.00 | 0.00 | 76 | 1034.6 |
| 20260504195416 | 12 | 18 | 3.2 | 8.0 | 0.00 | 0.00 | 0.00 | 76 | 1034.5 |
| 20260504194240 | 12 | 28 | 3.2 | 8.0 | 0.00 | 0.00 | 0.00 | 76 | 1034.5 |
| 20260504193741 | 12 | 35 | 4.8 | 8.0 | 0.00 | 0.00 | 0.00 | 76 | 1034.5 |
| 20260504193224 | 12 | 33 | 3.2 | 8.0 | 0.00 | 0.00 | 0.00 | 76 | 1034.5 |
| 20260504192704 | 12 | 23 | 3.2 | 6.4 | 0.00 | 0.00 | 0.00 | 76 | 1034.5 |
| 20260504191531 | 12 | 26 | 3.2 | 6.4 | 0.00 | 0.00 | 0.00 | 77 | 1034.4 |
| 20260504191015 | 12 | 14 | 3.2 | 6.4 | 0.00 | 0.00 | 0.00 | 77 | 1034.4 |
| 20260504190503 | 12 | 14 | 3.2 | 8.0 | 0.00 | 0.00 | 0.00 | 76 | 1034.3 |
| 20260504185339 | 12 | 18 | 3.2 | 8.0 | 0.00 | 0.00 | 0.00 | 77 | 1034.3 |
| 20260504184822 | 12 | 61 | 3.2 | 8.0 | 0.00 | 0.00 | 0.00 | 77 | 1034.4 |
| 20260504184315 | 12 | 17 | 3.2 | 8.0 | 0.00 | 0.00 | 0.00 | 77 | 1034.3 |
| 20260504183809 | 12 | 26 | 3.2 | 8.0 | 0.00 | 0.00 | 0.00 | 77 | 1034.4 |
| 20260504183314 | 12 | 40 | 3.2 | 6.4 | 0.00 | 0.00 | 0.00 | 77 | 1034.4 |
| 20260504182149 | 11 | 23 | 3.2 | 6.4 | 0.00 | 0.00 | 0.00 | 78 | 1034.4 |
| 20260504181651 | 11 | 35 | 1.6 | 6.4 | 0.00 | 0.00 | 0.00 | 78 | 1034.4 |
| 20260504181149 | 11 | 16 | 1.6 | 4.8 | 0.00 | 0.00 | 0.00 | 78 | 1034.4 |
| 20260504175435 | 11 | 16 | 1.6 | 4.8 | 0.00 | 0.00 | 0.00 | 78 | 1034.4 |
| 20260504174930 | 11 | 345 | 1.6 | 3.2 | 0.00 | 0.00 | 0.00 | 78 | 1034.4 |
| 20260504174411 | 11 | 28 | 1.6 | 4.8 | 0.00 | 0.00 | 0.00 | 77 | 1034.3 |
| 20260504173857 | 12 | 16 | 1.6 | 4.8 | 0.00 | 0.00 | 0.00 | 77 | 1034.4 |
| 20260504172738 | 12 | 21 | 3.2 | 8.0 | 0.00 | 0.00 | 0.00 | 77 | 1034.4 |
| 20260504172239 | 12 | 12 | 3.2 | 8.0 | 0.00 | 0.00 | 0.00 | 77 | 1034.4 |
| 20260504171055 | 12 | 44 | 1.6 | 8.0 | 0.00 | 0.00 | 0.00 | 77 | 1034.4 |
| 20260504170602 | 12 | 18 | 0.0 | 6.4 | 0.00 | 0.00 | 0.00 | 77 | 1034.4 |
| 20260504170106 | 12 | 18 | 0.0 | 6.4 | 0.00 | 0.00 | 0.00 | 77 | 1034.4 |
| 20260504160326 | 12 | 42 | 3.2 | 4.8 | 0.00 | 0.00 | 0.00 | 76 | 1034.4 |
| 20260504150209 | 12 | 53 | 1.6 | 4.8 | 0.00 | 0.00 | 0.00 | 76 | 1034.7 |
| 20260504140949 | 12 | 33 | 3.2 | 8.0 | 0.00 | 0.00 | 0.00 | 77 | 1035.0 |
| 20260504140441 | 12 | 35 | 3.2 | 6.4 | 0.00 | 0.00 | 0.00 | 77 | 1035.0 |
| 20260504130347 | 12 | 23 | 1.6 | 6.4 | 0.00 | 0.00 | 0.00 | 77 | 1035.2 |
| 20260504100136 | 12 | 28 | 1.6 | 4.8 | 0.00 | 0.00 | 0.00 | 76 | 1035.2 |
| 20260504081613 | 12 | 16 | 0.0 | 3.2 | 0.00 | 0.00 | 0.00 | 77 | 1034.7 |
| 20260504070136 | 12 | 10 | 1.6 | 4.8 | 0.00 | 0.00 | 0.00 | 75 | 1034.3 |